Regional Weather Roundup
Issued by NWS Charleston, SC

Home | Current Version | Previous Version | Text Only | Print | Product List | Glossary On
Versions: 1 2 3 4 5 6 7 8 9 10 11 12 13 14 15 16 17 18 19 20 21 22 23 24 25 26 27 28 29 30 31 32 33 34 35 36 37 38 39 40 41 42 43 44 45 46 47 48 49 50
000
ASUS42 KCHS 190210
RWRCHS

REGIONAL WEATHER ROUNDUP
NATIONAL WEATHER SERVICE CHARLESTON SC
1000 PM EDT THU SEP 18 2014

NOTE: "FAIR" INDICATES FEW OR NO CLOUDS BELOW 12,000 FEET WITH NO
SIGNIFICANT WEATHER AND/OR OBSTRUCTIONS TO VISIBILITY.

NOT ALL STATIONS ARE QUALITY CONTROLLED BY THE NATIONAL
WEATHER SERVICE. USE DATA WITH CAUTION...ESPECIALLY
DEWPOINT OBSERVATIONS.

SCZ027-030-031-034>040-042>050-190300-
...SOUTH CAROLINA...

CITY           SKY/WX    TMP DP  RH WIND       PRES   REMARKS
N CHARLESTON   CLEAR     76  70  82 E5        29.98R
WATERFRONT PRK   N/A     79 N/A N/A E10         N/A
FORT JOHNSON   NOT AVBL
MOUNT PLEASANT FAIR      72  72 100 CALM      29.98R FOG
JOHNS ISLAND   CLEAR     75  75 100 CALM      29.98R
PINOPOLIS        N/A     75  70  83 SE3       29.91R
MONCKS CORNER    N/A     73  72  94 CALM      29.98S
SUMMERVILLE    FAIR      72  72 100 CALM      30.00R
BEAUFORT MCAS  PTCLDY    73  70  90 CALM      29.97R
BEAUFORT ARPT  FAIR      72  72 100 SE3       29.97R
HILTON HEAD IS PTCLDY    73  72  94 E3        29.98R
GEORGETOWN     NOT AVBL
WALTERBORO     CLEAR     72 N/A N/A CALM      29.99R
ORANGEBURG     PTCLDY    72  69  90 CALM      29.99R
BARNWELL       FAIR      70  68  94 CALM      29.99R
AIKEN          FAIR      70  70 100 CALM      30.03R
MANNING        FAIR      72 N/A N/A CALM      30.00R
KINGSTREE      NOT AVBL
COLUMBIA       PTCLDY    75  68  78 CALM      29.99R
SUMTER         PTCLDY    74  67  78 SE7       29.99R
FLORENCE       PTCLDY    73  68  84 E8        30.01R
MYRTLE BEACH   PTCLDY    79  66  65 E12G18    29.99R
N MYRTLE BEACH PTCLDY    76  66  71 NE7       30.00R

$$

GAZ063-065-086>088-099>101-113>116-118-119-134-136>141-150-190300-
...GEORGIA...

CITY           SKY/WX    TMP DP  RH WIND       PRES   REMARKS
SAVANNAH ARPT  PTCLDY    76  68  76 E3        29.97R
HUNTER AAF     PTCLDY    75  71  86 E2        29.95R
FORT STEWART   PTCLDY    75  72  90 CALM      29.95R
STATESBORO     NOT AVBL
SYLVANIA       MOCLDY    77  74  90 E5        29.99R
CLAXTON        FAIR      73  73 100 CALM      29.97R
THOMSON        CLEAR     72  72 100 CALM      30.03S
AUGUSTA-BUSH   CLEAR     68  68 100 CALM      29.98R FOG
AUGUSTA-DANIEL PTCLDY    74  66  76 SE3       29.99R
SWAINSBORO     FAIR      73  73 100 CALM      29.98R
VIDALIA        PTCLDY    73  72  94 CALM      29.97R
ALMA           PTCLDY    72  70  93 CALM      29.96R
WAYCROSS       MOCLDY    78  75  91 E3        29.95R
JESUP          FAIR      77  77 100 CALM      29.96R
BRUNSWICK      MOCLDY    75  72  88 CALM      29.96R
SAINT SIMONS   MOCLDY    80  72  76 SE6       29.95R

$$

SCZ027-028-034-036>038-045-046-048>050-GAZ119-141-190300-
...LAKE AND SUPPLEMENTAL COASTAL OBSERVATIONS...

STATION/POSITION TIME  TEMP    WIND        PRES    WAVE   SWELL
                       AIR SEA DIR/SP/G            HT/PER HT/PER/DIR
                 (UTC) (F)     (DEG/KT/KT) (MB)    (FT/S) (FT/S/D)
UPR LAKE MARION  NOT AVBL
WINYAH BAY       0100   79      90/ 11     1014.0S
LAKE MURRAY      0100   74      10/  1/  2 1014.9R
ACE BASIN NERRS  0100   71        CALM     1015.0R
FORT PULASKI     0200   80      50/  7/  9 1014.9R
SAPELO ISLAND    0100   78     120/  2     1014.0S

$$

ANZ835-935-AMZ111-154-330-350-352-354-374-450-454-472-190300-
...C-MAN AND BUOY OBSERVATIONS...

STATION/POSITION TIME  TEMP    WIND        PRES    WAVE   SWELL
                       AIR SEA DIR/SP/G            HT/PER HT/PER/DIR
                 (UTC) (F)     (DEG/KT/KT) (MB)    (FT/S) (FT/S/D)
FOLLY BEACH CMAN 0100   80      80/  9/ 10 1015.0R
BUOY 41004       0200   80 83   80/ 10/ 14 1014.6R   3/ 9   2/ 9
BUOY 41008       0200   82 84  130/ 10/ 12 1014.3R   2/12   2/ 80/12
5E ST. MARYS GA  0200      85                N/A     2/13   2/ 90/13
FRYING PAN BUOY  NOT AVBL
BUOY 41025       0200   73      30/ 12/ 17 1016.9R   5/12   3/ 30/12
CAPE LOOKOUT NC  0100   74      50/ 17/ 19 1016.7R
BUOY 41002       0146   79 82   70/ 10/ 14 1015.5R   3/11   3/ 80/11
BUOY 41010       0200   83 85   80/  8/ 12 1014.2R   4/12   3/ 70/12
BUOY 41012       NOT AVBL
ST AUGUSTINE FL  0200   82     160/ 11/ 12 1014.9R
CAPERS NEARSHORE NOT AVBL
FRIPP NEARSHORE  NOT AVBL


$$


USA.gov is the U.S. government's official web portal to all federal, state and local government web resources and services.